Wind_Speed
27 27 27 27 29 30 30 30 30 31 32 32 31 32 32 32 31 31 32 33 33 33 33 33 32 32 32 32 32 32 32 32 32 33 33 34 34 34 35 36 36 37 37
27 27 28 28 28 29 29 31 32 32 33 33 33 33 34 34 33 33 33 33 34 34 33 33 32 33 33 32 32 32 31 32 33 33 34 34 34 35 37 37 38 38 38
27 27 27 27 28 28 29 29 31 31 33 34 34 35 35 35 34 35 34 34 34 34 33 33 33 33 32 32 32 32 33 34 35 35 36 36 37 37 38 38 39 40 41
26 27 27 27 28 29 30 31 31 32 32 33 35 36 37 37 36 36 35 36 35 35 34 33 33 33 33 33 34 35 36 36 37 38 39 39 39 40 40 40 41 42 43
25 26 27 28 29 29 30 31 32 32 33 34 35 35 36 36 36 35 36 35 36 35 34 34 34 35 35 35 36 37 38 38 39 40 40 41 42 42 43 43 44 45 46
23 25 26 27 29 30 31 32 33 34 34 34 34 34 34 35 36 36 36 35 35 35 35 35 36 36 37 38 39 39 40 41 42 42 43 43 44 45 45 46 47 48 48
22 24 25 27 28 29 30 32 34 34 35 34 34 34 35 36 36 36 36 36 36 36 36 37 38 38 39 40 41 42 42 43 44 44 45 45 46 47 48 48 49 49 49
23 25 26 28 29 30 31 33 34 34 34 34 34 35 35 36 36 37 37 37 37 38 38 39 40 41 42 43 43 44 45 46 46 47 47 48 48 49 50 50 51 51 50
24 25 26 28 29 30 31 32 34 34 34 35 35 36 36 37 37 37 37 37 38 39 41 42 43 44 45 46 47 47 48 48 48 49 49 50 51 52 52 52 52 52 52
24 26 27 28 29 30 31 33 34 35 35 36 37 37 37 38 39 39 39 40 41 42 43 44 45 46 47 48 48 48 48 49 50 50 51 52 52 53 53 53 53 54 54
24 26 27 28 29 30 31 32 34 35 36 37 38 38 38 39 40 41 41 42 43 44 45 46 47 47 48 49 49 49 50 51 51 52 53 53 54 54 54 54 55 55 56
25 26 27 28 29 30 31 33 34 35 36 37 38 39 40 40 41 41 43 44 45 46 46 47 48 49 50 50 51 52 52 53 54 54 55 55 55 55 55 56 56 56 57
27 28 28 29 29 30 32 33 34 35 36 37 38 39 40 40 41 42 43 44 46 47 47 48 49 50 50 52 53 53 54 55 55 56 56 56 56 57 57 57 58 58 59
28 29 29 30 31 32 33 34 35 36 36 37 38 39 40 41 42 43 44 45 46 47 48 49 50 51 52 53 55 55 56 57 57 57 57 57 58 58 58 59 60 60 60
28 29 30 31 32 32 33 34 35 36 36 37 38 39 40 42 43 45 46 47 48 49 50 51 52 53 54 55 57 58 58 58 58 58 58 59 59 60 61 61 61 61 60
29 30 31 32 32 33 34 35 36 37 37 38 40 41 42 43 45 47 48 48 49 51 52 53 54 55 56 57 59 60 59 59 59 60 60 60 61 61 61 61 60 59 58
30 31 32 33 33 34 35 37 38 39 39 40 41 43 44 45 47 48 49 50 51 52 54 55 56 57 58 59 60 60 60 60 60 60 60 60 60 60 60 59 59 57 56
32 33 33 34 35 35 37 38 39 40 41 42 43 45 46 48 49 50 51 52 53 54 55 56 57 57 58 58 59 59 60 60 60 60 60 60 59 59 58 57 56 55 54
34 34 35 36 36 37 38 39 40 42 43 44 45 46 47 49 49 50 52 53 54 55 56 57 57 57 58 59 59 60 60 60 59 59 59 59 58 57 56 55 54 53 52
35 36 37 37 38 39 40 41 42 43 45 46 47 48 49 50 51 52 53 54 55 55 56 57 58 59 59 59 60 61 61 60 59 58 58 57 56 55 54 54 53 51 50
37 38 39 40 41 42 42 43 44 46 47 48 49 50 50 51 52 53 54 55 56 57 58 58 59 59 60 60 60 60 60 59 57 56 55 54 54 53 52 52 51 50 49
40 41 42 42 43 44 45 46 47 48 49 49 50 50 51 52 53 54 55 56 57 58 58 58 58 59 59 59 59 58 58 57 56 54 54 52 52 51 51 50 49 49 48
42 43 44 45 46 47 48 48 49 49 50 50 50 51 52 53 54 55 56 56 57 57 57 57 58 58 58 58 57 56 55 55 54 53 53 52 51 51 50 50 49 48 47
45 46 47 48 48 49 49 49 50 50 50 50 51 52 53 54 55 55 55 56 56 57 57 57 57 57 56 55 55 55 54 54 53 52 51 51 50 50 49 48 47 46 45
47 48 48 48 49 49 49 49 50 50 51 52 52 53 54 54 54 54 55 55 56 56 56 56 56 55 54 53 53 53 53 52 51 50 49 48 48 48 47 46 45 44 43
47 47 47 48 48 48 49 49 50 51 52 52 53 53 53 53 54 54 54 54 55 55 56 56 55 55 54 53 52 51 51 50 49 48 46 46 45 45 44 43 43 42 41
Wind_Direction
229 232 234 238 240 242 244 247 249 251 253 256 258 262 265 268 271 273 271 271 273 274 275 275 276 279 280 281 282 285 287 288 288 288 289 289 289 288 288 287 286 285 283
231 233 236 240 242 244 246 248 249 253 255 257 260 264 267 269 270 270 272 273 273 274 274 275 276 277 279 280 282 284 286 289 290 289 289 290 290 290 289 288 287 286 285
235 236 240 245 246 245 246 248 250 253 256 258 261 264 267 270 271 271 271 273 274 275 276 276 276 278 279 280 282 283 286 288 290 290 290 290 290 290 290 288 287 286 285
240 241 243 246 247 248 250 253 256 257 258 260 263 265 266 268 271 271 272 272 274 275 277 277 277 278 280 281 282 284 286 288 290 291 291 291 291 291 290 289 288 287 285
243 243 244 247 249 251 255 257 259 260 261 264 266 267 267 268 270 273 274 274 274 275 276 277 278 279 281 281 282 284 286 288 289 290 291 291 292 292 291 290 289 288 287
245 244 246 249 251 254 257 260 262 263 265 267 268 268 269 271 273 275 277 276 276 276 276 277 278 280 281 283 283 285 287 289 290 291 291 291 292 292 291 291 290 288 288
250 249 250 253 255 257 259 262 264 265 266 267 268 269 270 272 273 275 276 276 276 277 277 277 278 280 281 283 284 286 287 289 290 290 291 291 292 291 291 291 290 288 287
253 254 255 258 260 261 262 264 265 266 267 268 269 270 271 272 273 275 276 276 277 277 277 278 278 279 281 284 285 286 288 289 289 290 290 291 291 291 291 291 290 288 287
256 256 260 262 263 264 265 266 266 267 268 269 270 271 271 272 273 274 276 276 277 278 278 278 279 280 282 285 286 286 288 288 289 289 290 290 291 291 291 291 290 288 287
261 262 264 266 266 267 267 267 268 269 270 271 271 273 273 273 273 274 276 277 278 278 279 279 281 282 283 285 286 287 287 287 288 288 289 290 291 291 291 291 291 290 289
267 267 267 269 269 269 269 269 270 271 272 273 273 273 274 274 275 276 276 278 279 279 280 281 282 283 284 285 286 286 287 287 288 288 289 290 291 291 291 292 291 291 290
268 269 270 271 271 272 272 273 274 274 274 275 275 274 274 275 276 277 277 278 279 280 281 282 283 284 284 285 286 287 287 287 288 288 289 290 290 291 291 292 292 292 291
270 272 272 272 273 273 273 274 275 275 276 276 277 276 275 276 278 279 279 280 281 282 282 283 284 285 285 286 286 287 287 287 288 288 289 290 291 291 292 292 293 293 292
273 274 274 274 274 274 275 276 277 277 277 277 277 278 277 278 279 281 281 282 282 283 283 285 286 286 286 287 287 287 287 288 289 289 289 290 291 291 292 292 293 293 292
274 274 274 275 275 276 276 277 278 278 279 279 278 278 279 279 281 282 283 283 284 284 284 286 287 288 288 288 288 288 289 290 290 290 290 290 291 291 292 292 292 292 292
274 274 275 276 276 277 278 279 279 279 280 280 279 279 279 280 282 283 283 284 284 285 286 287 288 289 289 290 290 290 289 290 290 290 290 291 291 291 291 291 291 292 292
277 276 276 277 278 278 279 280 280 280 280 281 280 281 282 282 284 285 285 286 287 288 289 288 289 289 290 290 290 290 290 290 290 290 290 290 290 290 290 291 291 292 291
278 278 278 278 279 280 280 281 281 282 282 282 282 282 283 284 285 286 287 288 288 289 289 289 289 291 291 291 291 291 290 290 290 290 290 290 290 290 290 290 290 290 290
278 279 280 280 280 281 282 282 283 283 284 285 285 285 285 286 287 288 288 289 289 290 290 290 291 291 292 292 292 291 291 291 290 290 289 289 289 289 290 289 289 289 289
279 280 280 281 281 282 283 284 284 285 286 287 287 287 288 288 288 289 289 290 290 291 291 291 292 292 293 292 292 292 291 291 290 290 289 289 289 289 288 288 288 288 287
279 280 280 282 283 283 284 285 286 287 287 288 288 288 289 289 289 289 290 291 291 292 292 291 292 292 292 293 293 292 292 291 291 290 289 289 289 289 288 288 287 287 286
280 280 281 282 284 284 285 286 287 287 288 288 288 288 289 289 290 290 291 291 292 292 292 292 292 292 293 293 293 292 292 291 291 290 289 288 288 288 288 287 286 285 285
280 281 282 283 285 286 286 287 288 288 289 289 289 289 289 290 291 291 292 292 292 292 292 293 293 293 293 293 293 292 292 292 291 290 289 288 288 287 287 286 285 284 284
281 282 284 285 286 287 287 288 288 289 289 290 290 290 291 291 291 292 292 293 293 293 293 294 294 294 294 294 293 292 292 291 291 290 290 289 288 287 286 285 283 282 282
282 283 285 286 287 287 288 288 289 289 290 290 291 292 292 292 292 292 293 293 293 294 294 295 295 295 294 294 293 293 292 292 291 290 289 288 287 286 285 284 282 281 281
284 284 285 286 287 288 288 289 289 290 291 291 292 292 292 293 293 294 294 294 294 294 295 296 296 296 296 295 293 293 292 292 291 290 290 289 288 287 285 283 281 281 280
Height
5767 5770 5773 5775 5777 5779 5781 5783 5785 5786 5787 5787 5787 5788 5788 5787 5787 5787 5787 5786 5785 5785 5784 5783 5782 5781 5780 5778 5776 5774 5772 5770 5769 5767 5765 5762 5760 5757 5755 5753 5751 5749 5746
5762 5765 5767 5769 5771 5773 5775 5777 5778 5779 5780 5780 5780 5780 5780 5780 5780 5780 5779 5778 5778 5777 5776 5775 5774 5773 5772 5770 5768 5767 5765 5763 5761 5759 5756 5754 5752 5749 5746 5744 5742 5739 5737
5758 5760 5762 5763 5765 5767 5768 5770 5771 5772 5772 5773 5773 5773 5773 5772 5772 5772 5772 5770 5770 5769 5768 5767 5766 5764 5763 5762 5760 5759 5757 5755 5753 5750 5748 5745 5743 5741 5738 5734 5732 5729 5727
5752 5754 5756 5758 5759 5760 5762 5763 5764 5764 5765 5765 5766 5765 5765 5765 5764 5764 5763 5762 5761 5761 5760 5759 5758 5756 5755 5754 5752 5751 5749 5747 5744 5741 5738 5736 5733 5730 5728 5725 5722 5719 5716
5747 5748 5750 5751 5753 5754 5755 5756 5757 5757 5757 5758 5757 5757 5757 5757 5756 5755 5755 5754 5753 5752 5752 5751 5750 5749 5747 5745 5743 5742 5740 5737 5735 5732 5729 5726 5723 5719 5717 5715 5711 5708 5705
5741 5742 5744 5745 5747 5748 5748 5749 5749 5750 5749 5750 5749 5749 5749 5748 5747 5747 5746 5745 5744 5744 5743 5742 5741 5740 5738 5737 5734 5732 5730 5727 5725 5722 5719 5716 5712 5709 5705 5703 5699 5696 5693
5736 5737 5738 5739 5740 5741 5741 5741 5742 5742 5742 5742 5741 5741 5741 5740 5739 5738 5737 5737 5736 5735 5734 5733 5732 5730 5729 5727 5725 5722 5720 5717 5714 5711 5708 5704 5701 5697 5694 5690 5687 5684 5681
5731 5732 5732 5733 5733 5733 5734 5734 5734 5734 5734 5734 5734 5733 5733 5732 5731 5730 5729 5728 5727 5726 5725 5723 5722 5720 5718 5716 5714 5711 5709 5706 5703 5699 5696 5692 5689 5685 5681 5678 5674 5671 5668
5726 5726 5726 5726 5726 5726 5726 5726 5726 5726 5726 5726 5725 5724 5724 5723 5722 5721 5720 5719 5718 5717 5715 5713 5712 5710 5708 5706 5703 5700 5697 5694 5690 5687 5684 5680 5676 5672 5668 5664 5660 5657 5654
5720 5720 5720 5719 5719 5719 5719 5718 5718 5718 5717 5717 5716 5715 5714 5714 5713 5712 5710 5709 5708 5706 5705 5703 5701 5699 5697 5694 5691 5688 5685 5681 5678 5674 5671 5667 5663 5659 5655 5651 5647 5642 5639
5714 5714 5713 5713 5712 5712 5711 5711 5711 5710 5709 5708 5707 5706 5705 5704 5703 5702 5700 5699 5697 5696 5694 5692 5689 5687 5684 5681 5678 5675 5672 5669 5665 5661 5658 5654 5649 5645 5641 5637 5632 5628 5624
5708 5707 5707 5706 5705 5704 5704 5703 5702 5701 5700 5699 5698 5696 5695 5694 5693 5692 5690 5689 5687 5685 5682 5680 5678 5675 5672 5669 5666 5662 5659 5655 5652 5648 5644 5640 5636 5631 5627 5622 5618 5614 5609
5702 5701 5700 5699 5698 5697 5696 5695 5694 5693 5691 5690 5688 5687 5686 5685 5683 5681 5680 5678 5675 5673 5670 5668 5665 5662 5659 5656 5652 5649 5645 5641 5638 5634 5630 5626 5621 5617 5612 5608 5603 5598 5594
5695 5694 5692 5691 5690 5689 5688 5687 5685 5684 5682 5680 5679 5678 5676 5674 5673 5671 5668 5666 5663 5661 5658 5655 5652 5649 5646 5642 5638 5634 5631 5627 5623 5619 5614 5610 5606 5601 5597 5592 5588 5583 5578
5687 5686 5685 5683 5682 5681 5679 5678 5676 5674 5673 5671 5669 5668 5666 5664 5661 5659 5656 5654 5651 5648 5645 5642 5639 5635 5631 5627 5623 5619 5616 5612 5607 5603 5599 5594 5590 5585 5581 5576 5572 5567 5562
5679 5678 5677 5675 5673 5672 5670 5668 5667 5665 5663 5661 5659 5657 5654 5652 5650 5647 5644 5641 5638 5635 5632 5628 5624 5620 5616 5612 5607 5603 5600 5596 5591 5587 5582 5578 5573 5569 5564 5559 5555 5550 5546
5671 5670 5668 5666 5664 5662 5661 5659 5656 5654 5652 5650 5648 5645 5643 5640 5637 5634 5631 5628 5624 5621 5617 5613 5609 5605 5600 5595 5591 5586 5583 5579 5574 5570 5565 5561 5556 5551 5547 5543 5539 5534 5530
5662 5660 5659 5657 5655 5653 5651 5648 5646 5643 5641 5638 5636 5633 5631 5628 5624 5621 5617 5613 5610 5606 5602 5597 5593 5589 5584 5579 5574 5569 5565 5561 5557 5552 5548 5543 5539 5534 5530 5526 5522 5518 5514
5653 5651 5649 5647 5645 5642 5640 5637 5635 5632 5629 5626 5624 5620 5617 5614 5610 5607 5603 5599 5595 5591 5586 5582 5577 5572 5568 5563 5557 5552 5548 5544 5540 5535 5530 5526 5522 5518 5513 5509 5506 5503 5499
5643 5641 5639 5636 5634 5631 5629 5626 5623 5620 5617 5614 5611 5607 5603 5600 5596 5592 5588 5583 5579 5575 5570 5566 5561 5556 5552 5546 5541 5535 5530 5527 5523 5518 5513 5508 5504 5501 5496 5493 5490 5487 5484
5632 5630 5628 5625 5623 5620 5617 5614 5611 5608 5604 5601 5597 5593 5589 5585 5581 5577 5573 5568 5564 5559 5555 5550 5545 5540 5534 5529 5524 5517 5512 5508 5505 5501 5497 5492 5488 5484 5480 5477 5474 5471 5468
5621 5618 5616 5613 5611 5608 5605 5602 5598 5595 5591 5587 5583 5579 5575 5571 5566 5562 5557 5552 5547 5543 5538 5533 5529 5523 5517 5512 5506 5501 5495 5491 5487 5484 5480 5476 5472 5468 5465 5462 5459 5456 5453
5609 5606 5603 5601 5598 5595 5591 5588 5584 5581 5577 5573 5569 5565 5560 5556 5551 5546 5542 5537 5531 5526 5521 5517 5512 5507 5501 5495 5489 5484 5479 5474 5470 5467 5463 5460 5456 5452 5449 5446 5444 5441 5439
5596 5593 5590 5587 5584 5581 5577 5574 5570 5566 5563 5559 5554 5550 5545 5541 5536 5531 5526 5521 5515 5510 5505 5500 5495 5490 5485 5479 5473 5468 5464 5459 5454 5450 5447 5443 5440 5437 5434 5431 5429 5426 5424
5582 5579 5576 5573 5570 5566 5563 5559 5556 5552 5548 5544 5540 5535 5530 5525 5521 5516 5511 5505 5500 5493 5488 5484 5478 5473 5469 5464 5458 5452 5448 5443 5439 5434 5431 5428 5425 5422 5419 5416 5414 5412 5411
5568 5565 5562 5559 5555 5552 5548 5545 5541 5537 5533 5529 5524 5519 5515 5510 5505 5500 5496 5490 5484 5478 5472 5466 5461 5456 5452 5447 5442 5437 5432 5427 5423 5419 5416 5413 5410 5407 5404 5402 5400 5399 5397